Saint Bonnet de Bellac- Haute Vienne - France
Donnes mto: vendredi, 13/04/2012
Date Horaire Temp. E. Hum. E. P.atmo. Pluie Vent Direction Direction Ensoleilleme Solaire P. de rose Temp au vent Rafales
13/04/2012 00:00 5,1 C 77 % 1005,1 hPa 0,0 mm 0,0 km/h (0 Bft) O-SO 247 0 min 0 W/m 1,4 C 5,1 C 0,0 km/h (0 Bft)
13/04/2012 00:10 5,2 C 77 % 1005,2 hPa 0,0 mm 0,0 km/h (0 Bft) O-SO 247 0 min 0 W/m 1,5 C 5,2 C 0,0 km/h (0 Bft)
13/04/2012 00:20 5,2 C 79 % 1005,2 hPa 0,0 mm 0,0 km/h (0 Bft) O-SO 247 0 min 0 W/m 1,9 C 5,2 C 0,0 km/h (0 Bft)
13/04/2012 00:30 5,1 C 79 % 1005,2 hPa 0,0 mm 0,0 km/h (0 Bft) O-SO 247 0 min 0 W/m 1,8 C 5,1 C 0,0 km/h (0 Bft)
13/04/2012 00:40 5,1 C 81 % 1005,2 hPa 0,0 mm 0,0 km/h (0 Bft) SO 225 0 min 0 W/m 2,1 C 5,1 C 0,0 km/h (0 Bft)
13/04/2012 00:50 5,1 C 81 % 1005,2 hPa 0,0 mm 0,0 km/h (0 Bft) SO 225 0 min 0 W/m 2,1 C 5,1 C 0,0 km/h (0 Bft)
13/04/2012 01:00 4,9 C 83 % 1005,1 hPa 0,0 mm 0,4 km/h (0 Bft) O-SO 247 0 min 0 W/m 2,3 C 4,9 C 0,4 km/h (0 Bft)
13/04/2012 01:10 4,9 C 84 % 1005,0 hPa 0,0 mm 0,0 km/h (0 Bft) SO 225 0 min 0 W/m 2,4 C 4,9 C 0,0 km/h (0 Bft)
13/04/2012 01:20 4,9 C 84 % 1005,0 hPa 0,0 mm 0,0 km/h (0 Bft) SO 225 0 min 0 W/m 2,4 C 4,9 C 0,0 km/h (0 Bft)
13/04/2012 01:30 4,8 C 85 % 1005,0 hPa 0,0 mm 0,0 km/h (0 Bft) SO 225 0 min 0 W/m 2,5 C 4,8 C 0,0 km/h (0 Bft)
13/04/2012 01:40 4,8 C 85 % 1005,0 hPa 0,0 mm 0,0 km/h (0 Bft) SO 225 0 min 0 W/m 2,5 C 4,8 C 0,0 km/h (0 Bft)
13/04/2012 01:50 4,6 C 86 % 1005,0 hPa 0,0 mm 0,0 km/h (0 Bft) SO 225 0 min 0 W/m 2,5 C 4,6 C 0,0 km/h (0 Bft)
13/04/2012 02:00 4,4 C 85 % 1005,0 hPa 0,0 mm 0,0 km/h (0 Bft) SO 225 0 min 0 W/m 2,1 C 4,4 C 0,0 km/h (0 Bft)
13/04/2012 02:10 4,3 C 85 % 1005,0 hPa 0,0 mm 0,0 km/h (0 Bft) S-SO 202 0 min 0 W/m 2,0 C 4,3 C 0,0 km/h (0 Bft)
13/04/2012 02:20 4,1 C 85 % 1005,0 hPa 0,0 mm 0,0 km/h (0 Bft) SO 225 0 min 0 W/m 1,8 C 4,1 C 0,0 km/h (0 Bft)
13/04/2012 02:30 4,1 C 86 % 1004,8 hPa 0,0 mm 0,0 km/h (0 Bft) SO 225 0 min 0 W/m 2,0 C 4,1 C 0,0 km/h (0 Bft)
13/04/2012 02:40 3,9 C 86 % 1004,7 hPa 0,0 mm 0,0 km/h (0 Bft) SO 225 0 min 0 W/m 1,8 C 3,9 C 0,0 km/h (0 Bft)
13/04/2012 02:50 3,8 C 86 % 1004,8 hPa 0,0 mm 0,0 km/h (0 Bft) SO 225 0 min 0 W/m 1,7 C 3,8 C 0,0 km/h (0 Bft)
13/04/2012 03:02 3,5 C 87 % 1004,7 hPa 0,0 mm 0,0 km/h (0 Bft) SO 225 0 min 0 W/m 1,5 C 3,5 C 0,0 km/h (0 Bft)
13/04/2012 03:10 3,3 C 87 % 1004,7 hPa 0,0 mm 0,0 km/h (0 Bft) SO 225 0 min 0 W/m 1,3 C 3,3 C 0,0 km/h (0 Bft)
13/04/2012 03:20 3,1 C 87 % 1004,6 hPa 0,0 mm 0,0 km/h (0 Bft) SO 225 0 min 0 W/m 1,2 C 3,1 C 0,0 km/h (0 Bft)
13/04/2012 03:30 3,1 C 87 % 1004,7 hPa 0,0 mm 0,0 km/h (0 Bft) SO 225 0 min 0 W/m 1,2 C 3,1 C 0,0 km/h (0 Bft)
13/04/2012 03:40 2,9 C 88 % 1004,7 hPa 0,0 mm 0,0 km/h (0 Bft) SO 225 0 min 0 W/m 1,1 C 2,9 C 0,0 km/h (0 Bft)
13/04/2012 03:50 2,6 C 88 % 1004,6 hPa 0,0 mm 0,0 km/h (0 Bft) SO 225 0 min 0 W/m 0,8 C 2,6 C 0,0 km/h (0 Bft)
13/04/2012 04:00 2,4 C 88 % 1004,6 hPa 0,0 mm 0,0 km/h (0 Bft) SO 225 0 min 0 W/m 0,6 C 2,4 C 0,0 km/h (0 Bft)
13/04/2012 04:10 2,3 C 88 % 1004,4 hPa 0,0 mm 0,0 km/h (0 Bft) O-SO 247 0 min 0 W/m 0,5 C 2,3 C 0,0 km/h (0 Bft)
13/04/2012 04:20 2,2 C 88 % 1004,4 hPa 0,0 mm 0,0 km/h (0 Bft) O 270 0 min 0 W/m 0,4 C 2,2 C 0,0 km/h (0 Bft)
13/04/2012 04:30 2,2 C 88 % 1004,2 hPa 0,0 mm 0,0 km/h (0 Bft) O 270 0 min 0 W/m 0,4 C 2,2 C 0,0 km/h (0 Bft)
13/04/2012 04:40 2,3 C 88 % 1004,2 hPa 0,0 mm 0,0 km/h (0 Bft) SE 135 0 min 0 W/m 0,5 C 2,3 C 0,0 km/h (0 Bft)
13/04/2012 04:50 2,2 C 88 % 1004,2 hPa 0,0 mm 0,0 km/h (0 Bft) SE 135 0 min 0 W/m 0,4 C 2,2 C 0,0 km/h (0 Bft)
13/04/2012 05:00 2,1 C 88 % 1004,2 hPa 0,0 mm 0,0 km/h (0 Bft) SE 135 0 min 0 W/m 0,3 C 2,1 C 0,0 km/h (0 Bft)
13/04/2012 05:10 1,9 C 88 % 1004,2 hPa 0,0 mm 0,0 km/h (0 Bft) SE 135 0 min 0 W/m 0,1 C 1,9 C 0,0 km/h (0 Bft)
13/04/2012 05:20 1,6 C 88 % 1004,0 hPa 0,0 mm 0,0 km/h (0 Bft) SE 135 0 min 0 W/m -0,2 C 1,6 C 0,0 km/h (0 Bft)
13/04/2012 05:30 1,4 C 88 % 1004,1 hPa 0,0 mm 0,0 km/h (0 Bft) SE 135 0 min 0 W/m -0,4 C 1,4 C 0,0 km/h (0 Bft)
13/04/2012 05:40 1,3 C 88 % 1004,1 hPa 0,0 mm 1,8 km/h (1 Bft) E-SE 112 0 min 0 W/m -0,5 C 1,3 C 4,3 km/h (1 Bft)
13/04/2012 05:50 1,4 C 88 % 1004,1 hPa 0,0 mm 0,0 km/h (0 Bft) E 90 0 min 0 W/m -0,4 C 1,4 C 0,0 km/h (0 Bft)
13/04/2012 06:00 1,4 C 89 % 1004,1 hPa 0,0 mm 0,0 km/h (0 Bft) SE 135 0 min 0 W/m -0,2 C 1,4 C 0,0 km/h (0 Bft)
13/04/2012 06:10 1,2 C 88 % 1004,0 hPa 0,0 mm 0,0 km/h (0 Bft) O-SO 247 0 min 0 W/m -0,6 C 1,2 C 0,0 km/h (0 Bft)
13/04/2012 06:20 0,9 C 89 % 1003,9 hPa 0,0 mm 0,0 km/h (0 Bft) SE 135 0 min 0 W/m -0,7 C 0,9 C 0,0 km/h (0 Bft)
13/04/2012 06:30 1,1 C 89 % 1003,9 hPa 0,0 mm 0,0 km/h (0 Bft) E-SE 112 0 min 0 W/m -0,5 C 1,1 C 0,0 km/h (0 Bft)
13/04/2012 06:40 1,1 C 89 % 1003,9 hPa 0,0 mm 0,7 km/h (0 Bft) E 90 0 min 0 W/m -0,5 C 1,1 C 0,7 km/h (0 Bft)
13/04/2012 06:50 0,9 C 89 % 1004,0 hPa 0,0 mm 2,5 km/h (1 Bft) E 90 0 min 0 W/m -0,7 C 0,9 C 3,6 km/h (1 Bft)
13/04/2012 07:00 0,8 C 89 % 1004,0 hPa 0,0 mm 0,0 km/h (0 Bft) E 90 0 min 0 W/m -0,8 C 0,8 C 0,0 km/h (0 Bft)
13/04/2012 07:10 0,6 C 89 % 1004,0 hPa 0,0 mm 0,7 km/h (0 Bft) E 90 0 min 0 W/m -1,0 C 0,6 C 3,2 km/h (1 Bft)
13/04/2012 07:20 0,6 C 89 % 1004,1 hPa 0,0 mm 2,9 km/h (1 Bft) E-SE 112 0 min 0 W/m -1,0 C 0,6 C 4,3 km/h (1 Bft)
13/04/2012 07:30 0,6 C 89 % 1004,1 hPa 0,0 mm 0,0 km/h (0 Bft) E-SE 112 2 min 0 W/m -1,0 C 0,6 C 0,0 km/h (0 Bft)
13/04/2012 07:40 0,8 C 89 % 1004,2 hPa 0,0 mm 0,0 km/h (0 Bft) E-SE 112 2 min 0 W/m -0,8 C 0,8 C 0,0 km/h (0 Bft)
13/04/2012 07:50 0,9 C 90 % 1004,2 hPa 0,0 mm 0,0 km/h (0 Bft) E-SE 112 2 min 0 W/m -0,6 C 0,9 C 0,0 km/h (0 Bft)
13/04/2012 08:00 1,1 C 90 % 1004,2 hPa 0,0 mm 0,0 km/h (0 Bft) E-SE 112 2 min 0 W/m -0,4 C 1,1 C 0,0 km/h (0 Bft)
13/04/2012 08:10 1,4 C 90 % 1004,3 hPa 0,0 mm 0,0 km/h (0 Bft) E-SE 112 2 min 0 W/m -0,1 C 1,4 C 0,0 km/h (0 Bft)
13/04/2012 08:20 1,4 C 90 % 1004,4 hPa 0,0 mm 0,0 km/h (0 Bft) E-SE 112 2 min 0 W/m -0,1 C 1,4 C 0,0 km/h (0 Bft)
13/04/2012 08:30 1,5 C 90 % 1004,5 hPa 0,0 mm 0,0 km/h (0 Bft) E-SE 112 2 min 0 W/m 0,0 C 1,5 C 0,0 km/h (0 Bft)
13/04/2012 08:40 1,8 C 90 % 1004,6 hPa 0,0 mm 0,0 km/h (0 Bft) E-SE 112 2 min 0 W/m 0,3 C 1,8 C 0,0 km/h (0 Bft)
13/04/2012 08:50 2,1 C 90 % 1004,8 hPa 0,0 mm 0,0 km/h (0 Bft) E-SE 112 2 min 0 W/m 0,6 C 2,1 C 0,0 km/h (0 Bft)
13/04/2012 09:00 2,8 C 91 % 1004,7 hPa 0,0 mm 0,0 km/h (0 Bft) E-SE 112 2 min 0 W/m 1,5 C 2,8 C 0,0 km/h (0 Bft)
13/04/2012 09:10 3,9 C 92 % 1004,8 hPa 0,0 mm 0,0 km/h (0 Bft) E-SE 112 2 min 0 W/m 2,7 C 3,9 C 0,0 km/h (0 Bft)
13/04/2012 09:20 4,9 C 92 % 1004,7 hPa 0,0 mm 0,0 km/h (0 Bft) E-SE 112 2 min 0 W/m 3,7 C 4,9 C 0,0 km/h (0 Bft)
13/04/2012 09:30 5,8 C 92 % 1004,7 hPa 0,0 mm 0,0 km/h (0 Bft) S-SO 202 2 min 0 W/m 4,6 C 5,8 C 0,0 km/h (0 Bft)
13/04/2012 09:40 6,6 C 91 % 1004,8 hPa 0,0 mm 0,0 km/h (0 Bft) S-SO 202 2 min 0 W/m 5,2 C 6,6 C 0,0 km/h (0 Bft)
13/04/2012 09:50 7,7 C 91 % 1004,8 hPa 0,0 mm 0,0 km/h (0 Bft) S-SO 202 2 min 0 W/m 6,3 C 7,7 C 0,0 km/h (0 Bft)
13/04/2012 10:00 8,8 C 87 % 1004,8 hPa 0,0 mm 1,8 km/h (1 Bft) S-SO 202 2 min 0 W/m 6,8 C 8,8 C 1,8 km/h (1 Bft)
13/04/2012 10:10 9,5 C 84 % 1004,8 hPa 0,0 mm 0,0 km/h (0 Bft) S-SO 202 2 min 0 W/m 6,9 C 9,5 C 0,0 km/h (0 Bft)
13/04/2012 10:20 10,3 C 81 % 1004,9 hPa 0,0 mm 0,0 km/h (0 Bft) S-SO 202 2 min 0 W/m 7,2 C 10,3 C 0,0 km/h (0 Bft)
13/04/2012 10:30 10,9 C 77 % 1004,9 hPa 0,0 mm 0,0 km/h (0 Bft) S-SO 202 2 min 0 W/m 7,0 C 10,9 C 0,0 km/h (0 Bft)
13/04/2012 10:40 11,8 C 78 % 1004,9 hPa 0,0 mm 0,0 km/h (0 Bft) NE 45 2 min 0 W/m 8,1 C 11,8 C 0,0 km/h (0 Bft)
13/04/2012 10:50 12,8 C 75 % 1005,0 hPa 0,0 mm 0,0 km/h (0 Bft) NE 45 2 min 0 W/m 8,5 C 12,8 C 0,0 km/h (0 Bft)
13/04/2012 11:00 13,4 C 68 % 1005,1 hPa 0,0 mm 0,0 km/h (0 Bft) O 270 2 min 0 W/m 7,6 C 13,4 C 0,0 km/h (0 Bft)
13/04/2012 11:10 13,6 C 66 % 1005,1 hPa 0,0 mm 0,7 km/h (0 Bft) O-SO 247 2 min 0 W/m 7,4 C 13,6 C 0,7 km/h (0 Bft)
13/04/2012 11:20 13,7 C 66 % 1005,1 hPa 0,0 mm 0,7 km/h (0 Bft) O-NO 292 2 min 0 W/m 7,5 C 13,7 C 4,0 km/h (1 Bft)
13/04/2012 11:30 14,0 C 68 % 1005,2 hPa 0,0 mm 1,8 km/h (1 Bft) O-NO 292 2 min 0 W/m 8,2 C 14,0 C 6,8 km/h (2 Bft)
13/04/2012 11:40 14,5 C 65 % 1005,1 hPa 0,0 mm 2,2 km/h (1 Bft) S 180 2 min 0 W/m 8,0 C 14,5 C 4,0 km/h (1 Bft)
13/04/2012 11:50 14,5 C 62 % 1005,1 hPa 0,0 mm 3,6 km/h (1 Bft) O-SO 247 2 min 0 W/m 7,3 C 14,5 C 7,2 km/h (2 Bft)
13/04/2012 12:00 14,6 C 63 % 1004,9 hPa 0,0 mm 0,4 km/h (0 Bft) O 270 2 min 0 W/m 7,6 C 14,6 C 3,2 km/h (1 Bft)
13/04/2012 12:10 14,8 C 62 % 1004,9 hPa 0,0 mm 1,1 km/h (1 Bft) O-SO 247 2 min 0 W/m 7,6 C 14,8 C 4,3 km/h (1 Bft)
13/04/2012 12:20 14,6 C 61 % 1004,9 hPa 0,0 mm 4,0 km/h (1 Bft) N-NO 337 2 min 0 W/m 7,2 C 14,6 C 6,5 km/h (2 Bft)
13/04/2012 12:30 15,0 C 58 % 1004,8 hPa 0,0 mm 0,0 km/h (0 Bft) SO 225 2 min 0 W/m 6,8 C 15,0 C 3,2 km/h (1 Bft)
13/04/2012 12:40 15,3 C 56 % 1004,7 hPa 0,0 mm 1,8 km/h (1 Bft) O-SO 247 2 min 0 W/m 6,6 C 15,3 C 3,6 km/h (1 Bft)
13/04/2012 12:50 15,8 C 54 % 1004,6 hPa 0,0 mm 5,4 km/h (2 Bft) SO 225 2 min 0 W/m 6,5 C 15,8 C 11,2 km/h (2 Bft)
13/04/2012 13:00 15,4 C 54 % 1004,5 hPa 0,0 mm 5,0 km/h (1 Bft) SO 225 2 min 0 W/m 6,1 C 15,4 C 5,0 km/h (1 Bft)
13/04/2012 13:10 15,1 C 55 % 1004,5 hPa 0,0 mm 2,9 km/h (1 Bft) S-SO 202 2 min 0 W/m 6,1 C 15,1 C 7,9 km/h (2 Bft)
13/04/2012 13:20 15,2 C 53 % 1004,4 hPa 0,0 mm 0,4 km/h (0 Bft) NO 315 2 min 0 W/m 5,7 C 15,2 C 1,4 km/h (1 Bft)
13/04/2012 13:30 15,3 C 52 % 1004,3 hPa 0,0 mm 10,1 km/h (2 Bft) NO 315 2 min 0 W/m 5,5 C 15,3 C 18,4 km/h (3 Bft)
13/04/2012 13:40 15,4 C 51 % 1004,5 hPa 0,0 mm 2,5 km/h (1 Bft) NO 315 2 min 0 W/m 5,3 C 15,4 C 6,1 km/h (2 Bft)
13/04/2012 13:50 15,1 C 51 % 1004,3 hPa 0,0 mm 4,3 km/h (1 Bft) N-NO 337 2 min 0 W/m 5,0 C 15,1 C 7,6 km/h (2 Bft)
13/04/2012 14:00 14,6 C 50 % 1004,2 hPa 0,0 mm 0,0 km/h (0 Bft) NO 315 2 min 0 W/m 4,3 C 14,6 C 3,6 km/h (1 Bft)
13/04/2012 14:10 13,9 C 49 % 1004,1 hPa 0,0 mm 0,0 km/h (0 Bft) O-NO 292 2 min 0 W/m 3,4 C 13,9 C 0,0 km/h (0 Bft)
13/04/2012 14:20 13,9 C 51 % 1004,1 hPa 0,0 mm 1,1 km/h (1 Bft) E-SE 112 2 min 0 W/m 3,9 C 13,9 C 3,6 km/h (1 Bft)
13/04/2012 14:30 14,8 C 51 % 1004,2 hPa 0,0 mm 0,0 km/h (0 Bft) NE 45 2 min 0 W/m 4,8 C 14,8 C 0,0 km/h (0 Bft)
13/04/2012 14:40 15,0 C 50 % 1004,1 hPa 0,0 mm 3,2 km/h (1 Bft) NE 45 2 min 0 W/m 4,7 C 15,0 C 4,3 km/h (1 Bft)
13/04/2012 14:50 14,6 C 51 % 1004,0 hPa 0,0 mm 0,4 km/h (0 Bft) NE 45 2 min 0 W/m 4,6 C 14,6 C 3,6 km/h (1 Bft)
13/04/2012 15:00 14,3 C 52 % 1004,0 hPa 0,0 mm 1,4 km/h (1 Bft) NE 45 2 min 0 W/m 4,6 C 14,3 C 4,3 km/h (1 Bft)
13/04/2012 15:10 13,8 C 52 % 1004,0 hPa 0,0 mm 1,8 km/h (1 Bft) N-NE 22 2 min 0 W/m 4,1 C 13,8 C 4,3 km/h (1 Bft)
13/04/2012 15:20 13,3 C 54 % 1004,0 hPa 0,0 mm 1,1 km/h (1 Bft) N-NE 22 2 min 0 W/m 4,2 C 13,3 C 4,3 km/h (1 Bft)
13/04/2012 15:30 12,8 C 55 % 1004,1 hPa 0,0 mm 0,7 km/h (0 Bft) NE 45 2 min 0 W/m 4,0 C 12,8 C 3,6 km/h (1 Bft)
13/04/2012 15:40 12,5 C 56 % 1004,0 hPa 0,0 mm 1,8 km/h (1 Bft) N 360 2 min 0 W/m 4,0 C 12,5 C 7,6 km/h (2 Bft)
13/04/2012 15:50 12,3 C 57 % 1004,0 hPa 0,0 mm 1,8 km/h (1 Bft) N-NE 22 2 min 0 W/m 4,0 C 12,3 C 3,2 km/h (1 Bft)
13/04/2012 16:00 12,1 C 59 % 1004,0 hPa 0,0 mm 0,0 km/h (0 Bft) N 360 2 min 0 W/m 4,3 C 12,1 C 0,0 km/h (0 Bft)
13/04/2012 16:10 11,6 C 66 % 1003,9 hPa 0,0 mm 5,0 km/h (1 Bft) S-SO 202 2 min 0 W/m 5,5 C 11,6 C 8,6 km/h (2 Bft)
13/04/2012 16:20 10,4 C 68 % 1004,1 hPa 0,1 mm 6,1 km/h (2 Bft) S-SO 202 2 min 0 W/m 4,8 C 10,4 C 6,5 km/h (2 Bft)
13/04/2012 16:30 9,8 C 71 % 1004,1 hPa 0,0 mm 0,7 km/h (0 Bft) O-SO 247 2 min 0 W/m 4,8 C 9,8 C 4,3 km/h (1 Bft)
13/04/2012 16:40 9,8 C 68 % 1004,1 hPa 0,1 mm 0,7 km/h (0 Bft) O-SO 247 2 min 0 W/m 4,2 C 9,8 C 0,7 km/h (0 Bft)
13/04/2012 16:50 9,8 C 66 % 1004,0 hPa 0,2 mm 11,5 km/h (2 Bft) SE 135 2 min 0 W/m 3,8 C 8,1 C 14,4 km/h (3 Bft)
13/04/2012 17:00 9,8 C 67 % 1003,7 hPa 0,0 mm 0,4 km/h (0 Bft) S-SE 157 2 min 0 W/m 4,0 C 9,8 C 4,3 km/h (1 Bft)
13/04/2012 17:10 9,8 C 68 % 1003,8 hPa 0,0 mm 1,1 km/h (1 Bft) E-SE 112 2 min 0 W/m 4,2 C 9,8 C 3,6 km/h (1 Bft)
13/04/2012 17:20 9,8 C 69 % 1003,8 hPa 0,0 mm 2,2 km/h (1 Bft) SE 135 2 min 0 W/m 4,4 C 9,8 C 4,0 km/h (1 Bft)
13/04/2012 17:30 10,0 C 69 % 1003,8 hPa 0,0 mm 2,9 km/h (1 Bft) S-SE 157 2 min 0 W/m 4,6 C 10,0 C 4,3 km/h (1 Bft)
13/04/2012 17:40 10,2 C 70 % 1003,7 hPa 0,0 mm 0,0 km/h (0 Bft) S-SE 157 2 min 0 W/m 5,0 C 10,2 C 0,0 km/h (0 Bft)
13/04/2012 17:50 10,3 C 72 % 1003,7 hPa 0,0 mm 0,0 km/h (0 Bft) S-SE 157 2 min 0 W/m 5,5 C 10,3 C 0,0 km/h (0 Bft)
13/04/2012 18:00 10,5 C 71 % 1003,6 hPa 0,0 mm 0,0 km/h (0 Bft) SO 225 2 min 0 W/m 5,5 C 10,5 C 0,0 km/h (0 Bft)
13/04/2012 18:10 10,6 C 68 % 1003,7 hPa 0,0 mm 0,0 km/h (0 Bft) SO 225 2 min 0 W/m 4,9 C 10,6 C 0,0 km/h (0 Bft)
13/04/2012 18:20 10,9 C 68 % 1003,5 hPa 0,0 mm 1,4 km/h (1 Bft) O 270 2 min 0 W/m 5,2 C 10,9 C 4,3 km/h (1 Bft)
13/04/2012 18:30 11,3 C 68 % 1003,5 hPa 0,0 mm 0,0 km/h (0 Bft) NO 315 2 min 0 W/m 5,6 C 11,3 C 3,2 km/h (1 Bft)
13/04/2012 18:40 11,8 C 66 % 1003,5 hPa 0,0 mm 3,6 km/h (1 Bft) N-NO 337 2 min 0 W/m 5,7 C 11,8 C 6,1 km/h (2 Bft)
13/04/2012 18:50 12,2 C 62 % 1003,4 hPa 0,0 mm 0,0 km/h (0 Bft) NO 315 2 min 0 W/m 5,1 C 12,2 C 0,0 km/h (0 Bft)
13/04/2012 19:00 12,4 C 60 % 1003,5 hPa 0,0 mm 0,0 km/h (0 Bft) SO 225 2 min 0 W/m 4,9 C 12,4 C 0,0 km/h (0 Bft)
13/04/2012 19:10 12,5 C 60 % 1003,4 hPa 0,0 mm 0,0 km/h (0 Bft) SO 225 2 min 0 W/m 5,0 C 12,5 C 0,0 km/h (0 Bft)
13/04/2012 19:20 12,4 C 60 % 1003,5 hPa 0,0 mm 0,0 km/h (0 Bft) SO 225 2 min 0 W/m 4,9 C 12,4 C 0,0 km/h (0 Bft)
13/04/2012 19:30 12,2 C 61 % 1003,4 hPa 0,0 mm 0,0 km/h (0 Bft) SO 225 2 min 0 W/m 4,9 C 12,2 C 0,0 km/h (0 Bft)
13/04/2012 19:40 11,6 C 63 % 1003,5 hPa 0,0 mm 2,9 km/h (1 Bft) SO 225 2 min 0 W/m 4,8 C 11,6 C 7,9 km/h (2 Bft)
13/04/2012 19:50 10,6 C 68 % 1003,5 hPa 0,0 mm 11,2 km/h (2 Bft) O-NO 292 2 min 0 W/m 4,9 C 10,6 C 20,2 km/h (4 Bft)
13/04/2012 20:00 9,9 C 70 % 1003,6 hPa 0,0 mm 4,7 km/h (1 Bft) SO 225 2 min 0 W/m 4,7 C 9,7 C 10,1 km/h (2 Bft)
13/04/2012 20:10 9,3 C 73 % 1003,5 hPa 0,0 mm 3,6 km/h (1 Bft) O-SO 247 2 min 0 W/m 4,7 C 9,3 C 8,6 km/h (2 Bft)
13/04/2012 20:20 8,8 C 75 % 1003,5 hPa 0,0 mm 0,0 km/h (0 Bft) SO 225 2 min 0 W/m 4,6 C 8,8 C 2,9 km/h (1 Bft)
13/04/2012 20:30 8,6 C 76 % 1003,6 hPa 0,0 mm 0,0 km/h (0 Bft) SO 225 2 min 0 W/m 4,6 C 8,6 C 0,0 km/h (0 Bft)
13/04/2012 20:40 8,4 C 77 % 1003,6 hPa 0,0 mm 0,0 km/h (0 Bft) SO 225 0 min 0 W/m 4,6 C 8,4 C 0,0 km/h (0 Bft)
13/04/2012 20:50 8,3 C 77 % 1003,6 hPa 0,0 mm 0,0 km/h (0 Bft) SO 225 0 min 0 W/m 4,5 C 8,3 C 0,0 km/h (0 Bft)
13/04/2012 21:00 8,2 C 78 % 1003,8 hPa 0,0 mm 0,4 km/h (0 Bft) SO 225 0 min 0 W/m 4,6 C 8,2 C 0,4 km/h (0 Bft)
13/04/2012 21:10 8,0 C 78 % 1003,8 hPa 0,0 mm 0,0 km/h (0 Bft) O-SO 247 0 min 0 W/m 4,4 C 8,0 C 0,0 km/h (0 Bft)
13/04/2012 21:20 7,9 C 79 % 1003,8 hPa 0,0 mm 0,4 km/h (0 Bft) SO 225 0 min 0 W/m 4,5 C 7,9 C 0,4 km/h (0 Bft)
13/04/2012 21:30 7,8 C 79 % 1003,9 hPa 0,0 mm 0,4 km/h (0 Bft) S-SO 202 0 min 0 W/m 4,4 C 7,8 C 3,6 km/h (1 Bft)
13/04/2012 21:40 7,6 C 78 % 1003,9 hPa 0,0 mm 0,0 km/h (0 Bft) S-SO 202 0 min 0 W/m 4,0 C 7,6 C 0,0 km/h (0 Bft)
13/04/2012 21:50 7,4 C 79 % 1003,9 hPa 0,0 mm 0,0 km/h (0 Bft) S-SO 202 0 min 0 W/m 4,0 C 7,4 C 0,0 km/h (0 Bft)
13/04/2012 22:00 7,3 C 79 % 1003,9 hPa 0,0 mm 0,0 km/h (0 Bft) S-SO 202 0 min 0 W/m 3,9 C 7,3 C 0,0 km/h (0 Bft)
13/04/2012 22:10 7,2 C 80 % 1004,0 hPa 0,0 mm 0,0 km/h (0 Bft) S-SO 202 0 min 0 W/m 4,0 C 7,2 C 0,0 km/h (0 Bft)
13/04/2012 22:20 7,2 C 80 % 1004,0 hPa 0,0 mm 0,0 km/h (0 Bft) SO 225 0 min 0 W/m 4,0 C 7,2 C 2,9 km/h (1 Bft)
13/04/2012 22:30 7,3 C 81 % 1004,0 hPa 0,0 mm 1,1 km/h (1 Bft) O-SO 247 0 min 0 W/m 4,3 C 7,3 C 4,0 km/h (1 Bft)
13/04/2012 22:40 7,4 C 81 % 1004,0 hPa 0,0 mm 1,8 km/h (1 Bft) S-SO 202 0 min 0 W/m 4,4 C 7,4 C 3,2 km/h (1 Bft)
13/04/2012 22:50 7,4 C 80 % 1004,0 hPa 0,0 mm 2,9 km/h (1 Bft) SO 225 0 min 0 W/m 4,2 C 7,4 C 4,3 km/h (1 Bft)
13/04/2012 23:00 7,5 C 80 % 1003,9 hPa 0,0 mm 0,0 km/h (0 Bft) SO 225 0 min 0 W/m 4,3 C 7,5 C 3,6 km/h (1 Bft)
13/04/2012 23:10 7,4 C 80 % 1004,0 hPa 0,0 mm 0,0 km/h (0 Bft) SO 225 0 min 0 W/m 4,2 C 7,4 C 0,0 km/h (0 Bft)
13/04/2012 23:20 7,4 C 80 % 1003,9 hPa 0,0 mm 0,0 km/h (0 Bft) SO 225 0 min 0 W/m 4,2 C 7,4 C 0,0 km/h (0 Bft)
13/04/2012 23:30 7,4 C 80 % 1004,0 hPa 0,0 mm 0,0 km/h (0 Bft) SO 225 0 min 0 W/m 4,2 C 7,4 C 0,0 km/h (0 Bft)
13/04/2012 23:40 7,3 C 80 % 1003,9 hPa 0,0 mm 0,0 km/h (0 Bft) S-SO 202 0 min 0 W/m 4,1 C 7,3 C 3,2 km/h (1 Bft)
13/04/2012 23:50 7,2 C 80 % 1003,9 hPa 0,0 mm 0,0 km/h (0 Bft) S-SO 202 0 min 0 W/m 4,0 C 7,2 C 0,0 km/h (0 Bft)
_ Min-Heure 07:30 14:10 19:30 - 23:50 - - - - 07:30 07:30 23:50
Minimum _ 0,6 C 49 % 1003,4 hPa - 0,0 km/h (0 Bft) - - - - -1,0 C 0,6 C 0,0 km/h (0 Bft)
_ Max-Heure 12:50 09:30 11:30 16:50 16:50 - - 20:30 23:50 10:50 12:50 19:50
Maximum _ 15,8 C 92 % 1005,2 hPa 0,2 mm 11,5 km/h
SE (2 Bft)
- - 2 min 0 W/m 8,5 C 15,8 C 20,2 km/h
O-NO (4 Bft)
Moyenne _ 7,8 C 76 % 1004,3 hPa #0,4 mm 0,9 km/h (0 Bft) SO - #2:38 h 0 W/m 3,5 C 7,8 C 2,1 km/h (1 Bft)
Saint Bonnet de Bellac- Haute Vienne - France